#timestamp,LO_Frequency,Hit,Temp,Hum 
1479783615.7,286047121.3,N,0.0,0.0
1479783635.5,286047121.4,N,0.0,0.0
1479783655.4,286047123.8,N,0.0,0.0
1479783675.2,286047123.0,N,0.0,0.0
1479783695.0,286047122.9,N,0.0,0.0
1479783696.0,286047122.9,N,0.0,0.0
1479783715.8,286047123.6,N,0.0,0.0
1479783735.6,286047122.3,N,0.0,0.0
1479783755.5,286047122.6,N,0.0,0.0
1479783775.3,286047121.8,N,0.0,0.0
1479783795.1,286047121.7,N,0.0,0.0
1479783815.9,286047124.1,N,0.0,0.0
1479783835.7,286047124.2,N,0.0,0.0
1479783855.6,286047124.3,N,0.0,0.0
1479783875.4,286047124.0,N,0.0,0.0
1479783895.2,286047125.9,N,0.0,0.0
1479783915.1,286047123.9,N,0.0,0.0
1479783916.0,286047123.9,N,0.0,0.0
1479783935.8,286047122.6,N,0.0,0.0
1479783955.6,286047122.2,N,0.0,0.0
1479783975.5,286047121.3,N,0.0,0.0
1479783995.3,286047123.8,N,0.0,0.0
1479784015.2,286047124.0,N,0.0,0.0
1479784035.9,286047121.5,N,0.0,0.0
1479784055.7,286047123.7,N,0.0,0.0
1479784075.6,286047123.7,N,0.0,0.0
1479784095.4,286047123.4,N,0.0,0.0
1479784115.3,286047125.9,N,0.0,0.0
1479784135.1,286047125.5,N,0.0,0.0
1479784136.0,286047125.5,N,0.0,0.0
1479784155.8,286047123.7,N,0.0,0.0
1479784175.7,286047123.2,N,0.0,0.0
1479784195.5,286047125.4,N,0.0,0.0
1479784215.3,286047127.5,N,0.0,0.0
1479784235.2,286047124.7,N,0.0,0.0
1479784255.0,286047126.9,N,0.0,0.0
1479784255.9,286047126.9,N,0.0,0.0
1479784275.8,286047127.2,N,0.0,0.0
1479784295.6,286047127.0,N,0.0,0.0
1479784315.4,286047127.4,N,0.0,0.0
1479784335.3,286047127.6,N,0.0,0.0
1479784355.1,286047124.6,N,0.0,0.0
1479784375.9,286047125.0,N,0.0,0.0
1479784395.7,286047125.3,N,0.0,0.0
1479784415.5,286047125.7,N,0.0,0.0
1479784435.4,286047123.0,N,0.0,0.0
1479784455.2,286047125.5,N,0.0,0.0
1479784475.0,286047123.4,N,0.0,0.0
1479784475.9,286047123.4,N,0.0,0.0
1479784495.8,286047123.2,N,0.0,0.0
1479784515.6,286047123.1,N,0.0,0.0
1479784535.5,286047125.1,N,0.0,0.0
1479784555.3,286047125.3,N,0.0,0.0
1479784575.1,286047125.4,N,0.0,0.0
1479784595.9,286047123.0,N,0.0,0.0
1479784615.7,286047123.0,N,0.0,0.0
1479784635.5,286047123.3,N,0.0,0.0
1479784655.4,286047122.9,N,0.0,0.0
1479784675.2,286047125.2,N,0.0,0.0
1479784695.1,286047126.8,N,0.0,0.0
1479784696.0,286047126.8,N,0.0,0.0
1479784715.8,286047124.5,N,0.0,0.0
1479784735.6,286047124.9,N,0.0,0.0
1479784755.5,286047124.9,N,0.0,0.0
1479784775.3,286047126.6,N,0.0,0.0
1479784795.2,286047127.3,N,0.0,0.0
1479784815.9,286047124.5,N,0.0,0.0
1479784835.7,286047125.0,N,0.0,0.0
1479784855.6,286047124.9,N,0.0,0.0
1479784875.4,286047124.7,N,0.0,0.0
1479784895.2,286047127.6,N,0.0,0.0
1479784915.1,286047126.3,N,0.0,0.0
1479784916.0,286047126.3,N,0.0,0.0
1479784935.8,286047126.2,N,0.0,0.0
1479784955.7,286047126.1,N,0.0,0.0
1479784975.5,286047128.8,N,0.0,0.0
1479784995.3,286047128.6,N,0.0,0.0
1479785015.2,286047127.8,N,0.0,0.0
1479785035.0,286047127.9,N,0.0,0.0
1479785035.9,286047127.9,N,0.0,0.0
1479785055.8,286047128.0,N,0.0,0.0
1479785075.6,286047128.0,N,0.0,0.0
1479785095.4,286047128.2,N,0.0,0.0
1479785115.3,286047128.8,N,0.0,0.0
1479785135.1,286047129.0,N,0.0,0.0
1479785155.8,286047128.4,N,0.0,0.0
1479785175.7,286047128.1,N,0.0,0.0
1479785195.5,286047128.4,N,0.0,0.0
1479785215.4,286047128.1,N,0.0,0.0
1479785235.2,286047129.9,N,0.0,0.0
1479785255.0,286047131.9,N,0.0,0.0
1479785255.9,286047131.9,N,0.0,0.0
1479785275.8,286047129.8,N,0.0,0.0
1479785295.6,286047130.3,N,0.0,0.0
1479785315.4,286047130.4,N,0.0,0.0
1479785335.3,286047130.6,N,0.0,0.0
1479785355.1,286047127.7,N,0.0,0.0
1479785375.9,286047130.7,N,0.0,0.0
1479785395.7,286047127.8,N,0.0,0.0
1479785415.5,286047130.3,N,0.0,0.0
1479785435.4,286047130.4,N,0.0,0.0
1479785455.2,286047130.7,N,0.0,0.0
1479785475.1,286047128.2,N,0.0,0.0
1479785476.0,286047128.2,N,0.0,0.0
1479785495.8,286047130.6,N,0.0,0.0
1479785515.6,286047128.1,N,0.0,0.0
1479785535.5,286047128.1,N,0.0,0.0
1479785555.3,286047128.6,N,0.0,0.0
1479785575.1,286047130.4,N,0.0,0.0
1479785595.9,286047128.4,N,0.0,0.0
1479785615.7,286047126.1,N,0.0,0.0
1479785635.6,286047128.6,N,0.0,0.0
1479785655.4,286047130.8,N,0.0,0.0
1479785675.2,286047129.0,N,0.0,0.0
1479785695.1,286047128.3,N,0.0,0.0
1479785696.0,286047128.3,N,0.0,0.0
1479785715.8,286047130.3,N,0.0,0.0
1479785735.6,286047130.0,N,0.0,0.0
1479785755.5,286047127.9,N,0.0,0.0
1479785775.3,286047127.9,N,0.0,0.0
1479785795.2,286047128.2,N,0.0,0.0
1479785815.9,286047129.8,N,0.0,0.0
1479785835.7,286047129.3,N,0.0,0.0
1479785855.6,286047129.3,N,0.0,0.0
1479785875.4,286047130.2,N,0.0,0.0
1479785895.2,286047132.0,N,0.0,0.0
1479785915.1,286047129.4,N,0.0,0.0
1479785916.0,286047129.4,N,0.0,0.0
1479785935.8,286047129.8,N,0.0,0.0
1479785955.7,286047131.9,N,0.0,0.0
1479785975.5,286047131.5,N,0.0,0.0
1479785995.3,286047132.4,N,0.0,0.0
1479786015.2,286047132.1,N,0.0,0.0
1479786035.0,286047131.4,N,0.0,0.0
1479786035.9,286047131.4,N,0.0,0.0
1479786055.8,286047133.9,N,0.0,0.0
1479786075.6,286047131.1,N,0.0,0.0
1479786095.4,286047131.6,N,0.0,0.0
1479786115.3,286047131.6,N,0.0,0.0
1479786135.1,286047131.0,N,0.0,0.0
1479786155.8,286047131.0,N,0.0,0.0
1479786175.7,286047131.7,N,0.0,0.0
1479786195.5,286047131.6,N,0.0,0.0
1479786215.4,286047132.7,N,0.0,0.0
1479786235.2,286047133.2,N,0.0,0.0
1479786255.0,286047133.0,N,0.0,0.0
1479786255.9,286047133.0,N,0.0,0.0
1479786275.8,286047135.1,N,0.0,0.0
1479786295.6,286047134.3,N,0.0,0.0
1479786315.5,286047133.7,N,0.0,0.0
1479786335.3,286047131.5,N,0.0,0.0
1479786355.1,286047129.7,N,0.0,0.0
1479786375.9,286047130.4,N,0.0,0.0
1479786395.7,286047126.5,N,0.0,0.0
1479786415.5,286047127.2,N,0.0,0.0
1479786435.4,286047125.0,N,0.0,0.0
1479786455.2,286047125.9,N,0.0,0.0
1479786475.1,286047124.1,N,0.0,0.0
1479786476.0,286047124.1,N,0.0,0.0
1479786495.8,286047121.7,N,0.0,0.0
1479786515.6,286047121.5,N,0.0,0.0
1479786535.5,286047121.6,N,0.0,0.0
1479786555.3,286047120.4,N,0.0,0.0
1479786575.1,286047117.1,N,0.0,0.0
1479786595.9,286047112.1,N,0.0,0.0
1479786615.7,286047111.4,N,0.0,0.0
1479786635.6,286047106.2,N,0.0,0.0
1479786655.4,286047102.2,N,0.0,0.0
1479786675.2,286047100.7,N,0.0,0.0
1479786695.1,286047100.8,N,0.0,0.0
1479786696.0,286047100.8,N,0.0,0.0
1479786715.8,286047099.1,N,0.0,0.0
1479786735.6,286047099.5,N,0.0,0.0
1479786755.5,286047099.9,N,0.0,0.0
1479786775.3,286047101.5,N,0.0,0.0
1479786795.2,286047098.9,N,0.0,0.0
1479786815.9,286047101.2,N,0.0,0.0
1479786835.7,286047101.4,N,0.0,0.0
1479786855.6,286047103.6,N,0.0,0.0
1479786875.4,286047100.8,N,0.0,0.0
1479786895.2,286047099.2,N,0.0,0.0
1479786915.1,286047101.4,N,0.0,0.0
1479786916.0,286047101.4,N,0.0,0.0
1479786935.8,286047101.9,N,0.0,0.0
1479786955.7,286047100.2,N,0.0,0.0
1479786975.5,286047097.4,N,0.0,0.0
1479786995.3,286047100.2,N,0.0,0.0
1479787015.2,286047100.4,N,0.0,0.0
1479787035.0,286047100.3,N,0.0,0.0
1479787035.9,286047100.3,N,0.0,0.0
1479787055.8,286047097.3,N,0.0,0.0
1479787075.6,286047098.1,N,0.0,0.0
1479787095.4,286047098.2,N,0.0,0.0
1479787115.3,286047095.8,N,0.0,0.0
1479787135.1,286047095.9,N,0.0,0.0
1479787155.8,286047094.4,N,0.0,0.0
1479787175.7,286047094.8,N,0.0,0.0
1479787195.5,286047093.1,N,0.0,0.0
